Wind_Speed
45 47 50 49 46 45 45 46 48 49 49 49 49 50 51 51 52 51 50 50 50 52 51 50 50 50 50 49 48 48 48 48 47 46 45 44 42 42 42 42 41 40 40 40 40 40 39 38 37 37 38 38 38 38 37 38 39 39 39 38 37 37 37 36 35 35 36 36 36 36 36 35 34 34 34 35 36 39 40 41 42 41 39 39 40 42
46 47 49 49 48 45 44 46 49 50 50 50 50 51 52 52 51 51 51 53 53 53 52 51 52 53 52 50 50 50 49 50 49 48 48 47 46 45 44 44 41 40 40 40 41 41 41 40 39 38 38 38 38 38 38 38 39 39 40 39 38 38 38 38 37 36 37 39 39 39 38 37 36 35 35 34 35 37 38 40 41 41 40 41 42 44
48 48 48 49 49 46 45 47 49 51 51 51 52 53 53 53 53 52 53 54 56 56 55 54 54 55 54 52 53 53 51 50 51 50 49 48 48 47 45 43 41 39 38 38 39 40 40 40 40 41 41 39 39 39 39 39 39 40 40 40 40 40 39 39 38 38 38 39 40 40 39 38 37 35 34 33 34 34 35 36 38 39 40 42 43 44
49 49 49 50 49 48 49 49 49 50 51 51 52 54 54 52 53 54 54 54 55 56 58 58 57 57 55 55 55 55 53 52 53 54 54 52 49 47 45 44 43 41 39 37 36 36 37 38 40 41 42 42 41 40 40 40 40 41 42 42 42 42 41 41 40 40 40 40 40 39 38 36 35 34 32 32 32 32 32 33 34 35 36 39 41 43
48 48 49 50 52 51 50 49 48 49 50 50 50 51 52 51 51 53 54 55 55 56 57 59 59 58 56 55 54 53 52 53 55 56 57 56 52 48 47 46 45 44 41 39 36 33 31 31 35 39 41 42 42 42 42 42 42 42 43 43 44 44 43 43 42 42 42 41 40 39 37 36 34 33 33 32 33 33 33 34 34 34 35 36 38 40
46 45 44 46 49 51 50 48 47 49 49 49 49 49 50 51 52 53 54 56 56 56 57 58 59 59 56 54 52 50 50 51 54 55 54 53 51 49 48 46 44 43 42 40 35 29 26 25 29 35 37 39 40 42 43 43 44 44 44 44 44 44 44 44 42 42 44 43 42 40 39 37 36 35 34 34 34 35 36 36 37 37 37 38 38 39
45 44 43 44 46 48 48 47 47 48 49 49 48 48 48 50 51 52 53 54 55 55 56 56 58 59 58 54 51 49 50 51 54 55 53 52 50 49 48 45 43 43 41 37 30 24 22 22 26 30 34 36 37 39 41 43 44 44 44 44 44 44 44 44 43 44 45 45 44 43 42 41 39 38 36 35 34 34 35 36 37 38 38 39 40 41
45 44 44 45 45 45 45 45 46 47 48 48 48 47 48 48 49 51 52 53 54 55 55 55 54 57 58 56 53 52 52 54 55 53 52 52 50 50 49 46 43 41 37 33 27 23 20 22 26 29 30 32 35 38 40 42 44 45 45 45 45 45 45 45 45 46 47 48 47 46 45 44 43 41 40 39 37 37 37 37 38 38 39 40 41 42
44 43 43 44 44 43 43 44 45 46 47 48 48 48 49 49 49 50 51 52 53 55 56 54 53 54 56 56 55 54 55 56 55 52 50 50 51 50 49 48 45 39 33 26 25 25 23 26 29 29 31 32 35 38 40 42 44 45 46 47 47 47 47 47 48 49 50 50 50 50 49 47 46 45 44 43 43 42 42 41 40 40 40 41 42 43
44 44 43 42 42 43 43 43 43 44 46 47 47 48 49 51 51 51 53 53 54 56 57 54 53 54 56 56 55 55 55 56 56 54 50 49 50 49 47 47 47 42 35 28 27 27 27 30 33 34 37 40 39 37 38 42 44 46 46 47 48 48 49 49 49 51 51 51 51 51 50 49 49 49 49 49 49 48 47 45 44 43 43 43 43 44
45 46 45 44 44 44 43 43 43 44 46 48 50 51 52 53 53 54 54 54 55 57 56 54 54 55 57 57 56 55 54 55 54 53 50 47 48 48 47 46 45 43 38 34 33 31 31 33 36 38 40 43 43 39 36 39 43 46 49 49 49 50 51 52 52 52 52 52 52 52 52 51 51 53 54 55 54 53 52 50 47 46 46 45 45 46
46 46 46 45 45 45 44 45 47 49 51 53 54 55 56 56 56 56 56 56 57 57 55 55 57 58 60 59 57 55 53 54 55 52 49 47 47 47 48 47 45 43 40 37 37 36 35 35 37 40 43 45 47 45 40 39 40 44 48 51 52 52 53 54 55 55 55 55 55 56 56 56 57 57 58 58 58 57 56 54 51 50 49 48 48 48
48 48 47 46 45 45 47 50 53 56 57 57 55 55 55 56 56 56 56 57 57 56 56 58 59 60 61 59 56 54 52 54 56 53 49 49 49 48 48 48 48 48 46 44 43 42 42 42 45 50 53 53 53 52 46 43 43 44 47 50 53 55 56 57 58 59 59 60 60 61 62 63 64 63 61 61 60 59 59 57 55 53 52 51 51 51
51 51 50 49 47 48 52 56 59 60 59 56 53 52 53 53 53 54 53 53 53 53 54 56 57 58 57 55 55 54 51 52 54 53 51 50 51 52 51 52 52 53 54 53 52 51 52 53 56 58 59 58 57 56 52 49 51 51 50 51 52 55 58 60 60 61 62 63 65 66 66 67 67 66 64 63 63 62 61 60 58 56 54 53 53 52
52 51 51 51 52 54 56 58 58 57 56 54 52 51 50 49 49 50 51 51 52 53 52 52 54 56 54 52 53 53 52 52 55 56 55 54 55 57 57 57 57 58 59 59 59 59 60 61 62 62 62 62 61 61 58 55 57 60 58 56 56 56 58 60 61 62 64 65 66 68 68 67 67 67 67 67 67 66 65 64 63 61 58 57 56 55
49 50 52 54 56 55 53 51 50 49 49 50 49 49 48 47 47 50 53 53 53 56 55 52 53 54 53 52 53 55 55 54 56 57 57 58 57 58 59 60 60 61 62 62 62 62 63 64 65 65 65 64 63 63 60 57 59 63 66 67 65 63 63 64 64 65 66 68 69 70 71 71 70 71 71 71 72 72 71 69 68 67 65 63 61 60
50 52 53 53 53 51 48 47 46 45 46 48 47 48 48 49 50 53 55 54 54 58 58 54 55 55 54 55 56 56 57 56 56 56 57 58 58 58 59 60 61 62 62 63 63 63 65 66 67 68 68 68 66 65 64 63 64 67 71 72 69 67 68 69 69 68 68 69 70 71 73 74 75 75 75 75 75 75 75 74 73 72 71 69 67 65
51 52 51 49 49 49 48 48 49 49 49 50 50 49 50 52 53 53 55 55 56 59 59 57 57 58 57 58 57 56 57 56 56 54 53 54 55 56 58 59 60 60 60 62 63 63 65 66 67 67 68 68 68 67 66 66 67 68 70 70 69 69 69 69 69 69 69 70 71 72 74 75 76 77 78 79 78 77 77 77 77 75 73 72 70 69
52 52 51 50 51 52 51 52 53 54 53 53 53 51 50 52 54 53 55 56 57 59 60 57 56 56 57 56 54 54 53 52 51 50 49 50 51 53 54 56 57 56 57 60 62 64 65 67 68 67 67 67 65 64 62 61 62 65 67 69 69 70 70 71 71 71 72 72 73 74 75 76 76 77 78 80 80 80 79 78 76 75 74 72 71 70
55 56 56 54 54 55 55 55 56 55 54 55 55 53 51 52 52 51 52 53 55 56 57 56 55 55 53 50 50 51 49 48 48 48 49 50 51 52 52 52 53 55 56 58 61 63 63 65 66 66 66 65 63 62 60 59 60 63 66 68 68 69 71 73 73 73 73 74 75 76 77 78 78 78 79 79 79 79 78 77 74 72 71 70 70 70
58 59 60 59 59 59 58 56 55 55 56 56 55 53 51 51 50 50 51 50 50 53 53 54 55 51 46 46 49 49 47 47 48 49 52 53 54 53 52 51 50 52 54 56 57 59 60 61 63 63 62 60 59 58 58 59 60 63 67 69 71 73 74 73 72 73 75 76 77 79 79 80 80 79 79 78 78 77 76 74 73 72 71 70 70 71
61 60 61 62 62 61 59 56 55 55 56 55 54 51 48 49 49 50 52 50 48 51 52 54 56 51 44 45 49 49 49 50 51 53 56 56 55 53 52 52 52 53 57 59 60 60 60 60 61 62 63 62 61 62 63 65 67 69 72 74 75 75 75 74 74 75 76 77 79 80 81 81 81 80 79 78 77 76 75 75 74 74 73 72 71 72
62 61 61 61 60 60 59 57 55 55 53 51 51 50 48 48 48 49 52 51 49 52 53 54 58 55 48 47 49 50 51 52 54 56 56 56 55 55 55 57 59 61 63 64 65 65 65 64 65 65 65 66 67 68 69 72 74 76 77 78 78 77 77 77 77 78 80 81 82 81 81 81 82 82 82 80 79 78 77 78 77 77 77 75 74 74
60 58 59 59 58 57 57 55 53 53 52 50 50 50 49 49 49 49 52 53 54 56 55 57 61 58 52 51 51 51 52 53 54 55 54 55 56 57 59 62 64 66 66 67 68 69 70 70 70 70 70 72 73 73 75 76 78 79 80 80 81 81 81 82 83 84 86 87 87 87 86 85 84 84 84 83 82 80 79 78 79 80 80 79 79 79
55 55 56 56 55 55 54 52 51 52 51 50 50 50 49 49 49 50 51 51 54 56 53 54 59 55 51 52 52 51 52 53 54 55 56 58 60 62 65 67 69 70 71 71 71 72 73 74 75 76 78 79 80 80 81 82 83 84 84 85 85 85 86 87 87 88 88 88 87 87 87 86 86 86 86 86 85 83 82 82 82 83 82 82 81 81
54 53 53 54 54 54 53 51 50 51 52 52 52 51 51 50 50 52 54 55 58 59 56 57 61 60 57 58 58 58 60 61 61 62 63 65 67 68 68 69 70 71 72 72 73 73 75 77 79 81 83 83 84 85 86 87 88 89 90 90 91 91 91 91 91 90 88 86 85 84 85 86 87 88 88 89 89 89 89 90 90 90 89 88 86 85
54 54 53 53 55 55 54 52 51 52 56 56 54 53 53 53 53 56 60 62 63 66 66 65 66 68 66 63 63 65 67 69 69 69 70 71 71 72 72 73 73 74 75 77 78 80 81 82 84 86 87 89 91 91 92 92 92 93 93 94 94 94 95 95 94 93 91 90 90 90 92 93 95 95 95 95 95 96 97 98 98 98 97 95 94 92
54 54 53 54 56 56 56 55 54 55 58 59 58 56 54 54 56 58 62 64 64 68 70 67 66 69 68 65 65 67 69 70 71 71 71 72 72 73 74 75 76 78 79 80 82 84 85 87 88 90 92 93 95 95 95 95 95 95 95 96 96 96 97 97 97 96 96 97 98 99 102 104 105 104 103 102 103 103 103 103 104 104 103 102 100 97
54 55 53 55 58 57 57 57 57 58 60 60 59 59 58 58 59 60 63 64 65 69 72 68 67 70 69 67 67 69 69 70 71 71 71 72 72 73 74 75 76 77 78 80 82 84 86 88 89 91 92 94 95 96 97 97 98 98 99 100 102 102 102 102 103 103 103 104 106 109 111 111 110 109 107 106 106 106 105 105 105 105 105 104 103 101
56 56 55 57 59 58 57 58 59 61 62 61 61 61 60 60 61 62 63 63 65 69 71 70 70 71 69 68 70 71 70 71 72 72 73 73 74 75 76 77 78 79 80 82 83 85 87 88 89 91 93 95 96 98 99 99 100 101 102 103 105 106 106 106 107 107 108 109 112 113 113 112 111 109 108 106 105 104 104 103 102 101 100 100 101 101
58 58 58 60 61 60 57 59 61 62 63 63 62 62 62 62 62 63 63 63 66 69 70 71 73 73 71 71 73 73 73 73 75 76 76 77 78 79 80 81 82 83 85 86 88 89 90 91 92 93 94 96 98 100 101 102 102 102 102 103 103 103 103 104 104 105 107 107 108 109 109 109 108 108 106 105 104 103 102 101 101 99 99 98 98 99
59 60 60 61 64 62 58 59 63 63 64 65 64 62 61 62 63 64 64 65 67 69 70 72 74 75 74 75 76 76 77 77 78 80 81 82 83 84 85 85 85 86 87 89 90 91 92 93 94 95 96 97 99 100 102 102 103 102 102 101 101 100 100 100 101 101 102 103 104 104 105 105 105 105 105 104 104 103 103 102 102 101 101 101 101 101
59 61 61 61 65 64 59 61 65 66 68 69 65 62 61 62 64 66 67 67 67 69 71 74 76 78 79 80 81 81 81 81 82 83 84 85 87 87 87 87 87 88 88 88 89 89 90 90 91 92 92 93 94 95 96 97 98 98 98 98 98 98 97 97 98 99 99 100 101 102 103 103 104 104 104 105 105 106 106 106 106 105 106 106 106 106
60 62 62 62 65 65 61 62 67 70 72 69 64 62 64 65 68 70 70 69 69 71 74 77 79 80 80 82 83 82 82 82 83 84 84 85 86 86 87 87 87 87 86 85 84 84 83 83 83 83 83 84 85 85 86 88 89 90 91 92 92 92 92 93 93 94 95 96 97 98 99 100 101 102 103 103 104 105 106 107 107 108 108 109 109 109
60 61 63 64 65 66 64 64 69 73 71 68 66 67 68 69 70 71 71 71 71 73 76 79 80 80 81 83 83 82 81 81 81 81 81 81 81 82 82 82 81 80 79 77 76 75 74 74 73 73 73 75 76 78 79 80 81 83 84 85 85 86 86 87 88 89 90 91 91 92 93 94 96 97 98 99 100 101 102 103 104 105 106 107 108 109
60 62 64 65 66 67 67 67 72 74 71 70 70 70 70 71 72 72 73 73 74 75 78 80 82 82 82 82 81 80 80 79 79 78 77 77 77 76 75 73 72 71 70 69 68 66 66 65 65 65 66 68 70 72 73 74 75 76 77 78 79 80 81 81 82 83 84 85 85 86 87 89 90 91 92 93 94 95 96 97 98 99 100 101 102 103
61 62 64 66 67 68 69 70 73 74 73 72 71 72 73 74 73 74 77 77 76 77 79 81 82 81 80 79 78 77 77 77 76 74 72 71 71 69 67 65 63 63 63 63 62 61 60 60 61 61 62 63 64 66 67 68 69 71 72 72 73 74 75 76 77 77 78 79 79 80 81 82 84 85 86 87 88 89 90 91 93 93 94 95 96 96
62 63 64 67 68 68 70 72 74 76 76 74 72 74 75 75 75 77 79 79 79 79 79 78 76 76 75 74 74 74 73 73 71 67 65 65 64 62 61 59 58 58 58 58 58 57 57 57 58 58 59 60 61 62 63 64 66 67 68 69 70 71 72 73 74 75 75 76 76 77 78 79 80 81 82 83 84 85 86 87 88 90 91 92 93 93
63 65 65 68 69 69 71 73 75 77 77 75 74 75 76 76 77 76 77 79 78 75 73 73 72 73 72 70 70 69 68 67 64 60 59 59 58 57 57 57 56 57 57 56 56 55 56 56 56 57 59 60 61 62 63 64 65 67 68 69 70 71 72 73 74 74 75 76 77 77 78 79 80 81 82 82 83 84 85 85 86 87 88 90 91 91
64 66 68 70 71 70 72 75 77 77 76 75 75 76 76 76 75 74 75 76 72 68 69 70 69 69 67 65 64 63 62 61 59 56 55 54 54 54 56 56 56 55 55 55 55 55 55 55 56 57 59 60 61 62 63 64 65 67 68 69 70 71 72 73 74 75 76 77 78 79 79 80 81 81 82 83 83 84 84 85 86 87 88 89 90 90
65 68 70 71 71 72 74 77 78 78 76 75 76 76 75 74 72 70 69 67 63 63 65 65 64 63 62 61 61 59 58 57 56 54 53 53 53 53 54 56 55 54 54 54 54 54 54 55 57 58 59 61 63 64 65 66 67 68 69 70 71 72 73 74 75 76 77 78 79 80 80 81 82 83 83 84 85 85 85 85 87 88 88 89 89 90
67 69 70 71 72 73 75 77 79 80 78 77 76 75 73 71 68 64 61 60 60 61 61 59 59 59 58 58 58 56 55 53 53 53 54 54 54 53 53 53 53 54 54 54 54 55 56 58 59 61 62 64 65 66 67 67 68 69 69 70 71 73 74 75 76 77 78 78 79 80 81 82 83 84 84 84 85 85 84 84 85 86 87 88 88 89
69 71 71 71 71 73 75 77 79 80 78 77 75 73 70 67 63 60 58 57 58 57 57 57 56 55 55 56 55 53 52 51 52 52 53 53 53 53 53 53 53 54 55 56 57 58 60 61 62 63 64 65 66 67 67 68 68 68 69 70 71 72 73 75 76 77 78 79 80 81 81 82 82 82 83 83 83 82 81 81 81 81 81 82 83 83
71 70 70 70 71 73 76 78 79 77 75 74 73 69 65 62 59 57 56 56 55 55 55 55 54 53 53 54 53 52 52 51 51 51 51 52 52 53 54 54 55 57 58 59 60 61 62 63 63 63 64 65 65 66 66 67 67 68 69 70 71 72 73 74 75 77 77 78 79 79 80 80 80 80 79 78 77 76 74 73 72 72 72 73 73 74
70 69 68 70 72 73 75 76 74 71 69 68 66 62 59 57 55 54 54 55 55 55 54 54 53 52 51 52 53 52 52 51 51 51 51 52 53 54 55 56 58 59 60 61 62 62 63 63 62 63 63 64 64 65 66 66 67 67 68 69 70 71 72 73 74 75 76 76 77 78 77 76 74 72 70 68 67 67 66 65 65 65 66 67 67 68
70 68 69 71 73 73 74 73 69 64 60 57 56 55 54 53 52 52 53 53 53 53 52 52 52 51 50 51 52 52 52 52 52 52 52 52 53 55 57 58 60 61 62 63 63 63 63 62 62 62 62 63 64 64 65 66 66 66 67 68 69 70 71 72 73 74 74 75 74 73 71 67 64 62 61 60 60 60 59 59 60 61 62 63 64 65
69 68 69 72 73 73 74 70 63 58 54 51 50 52 53 53 52 51 51 52 52 51 51 51 51 50 51 51 52 52 53 53 53 53 53 53 54 56 58 59 61 62 62 63 63 63 63 62 62 62 62 63 63 63 63 63 63 64 65 66 67 68 69 71 71 71 71 70 68 64 61 58 55 54 53 52 52 53 54 55 57 58 59 60 61 62
67 67 69 72 71 71 70 65 57 52 50 48 48 50 51 51 50 50 50 50 50 50 50 50 51 51 51 51 52 53 53 54 54 54 54 54 56 57 58 60 61 62 63 63 63 62 62 62 62 62 62 62 61 60 60 59 60 61 63 64 65 67 67 68 68 67 65 63 60 56 53 50 48 47 46 47 48 50 51 52 53 53 54 56 57 58
66 67 68 66 65 64 62 58 52 49 48 47 46 47 48 49 50 51 50 50 50 50 50 51 51 52 52 52 53 53 54 54 55 54 55 56 57 58 59 60 62 62 62 63 62 62 62 62 62 61 60 59 58 57 56 56 58 59 61 62 64 64 63 62 61 60 59 57 53 49 46 45 44 44 45 46 46 47 48 49 50 51 52 54 55 56
63 63 61 58 58 57 54 51 49 49 49 46 44 45 47 49 51 51 50 50 51 51 52 52 53 53 54 54 54 54 55 55 55 56 57 57 58 59 60 61 62 62 62 62 62 62 62 61 60 59 57 56 55 54 54 55 57 58 60 60 60 59 58 57 55 55 54 52 48 45 43 43 43 43 43 43 43 44 45 48 50 53 55 56 57 57
57 57 54 53 54 53 49 47 48 50 50 48 46 45 46 48 50 50 50 50 51 52 53 54 55 55 55 55 55 55 56 56 56 57 57 58 59 60 61 61 62 62 62 62 62 61 60 59 57 55 54 53 52 52 53 55 56 57 57 56 54 52 52 51 50 49 49 47 45 42 42 41 41 41 41 41 42 43 44 47 52 56 57 55 53 51
Wind_Direction
279 280 280 282 282 282 283 284 284 283 283 284 285 285 286 286 287 289 290 289 287 286 287 288 288 287 287 289 292 292 293 293 293 295 295 295 292 290 289 286 285 286 286 285 285 284 284 284 283 282 281 279 278 277 276 275 273 272 270 268 265 262 260 258 257 257 257 256 256 255 255 254 254 253 253 254 255 256 256 256 255 255 255 256 258 261
280 279 281 282 281 282 283 283 283 283 284 285 285 285 285 286 288 289 290 288 287 287 287 288 288 288 288 290 291 291 292 292 293 294 294 293 291 289 287 285 285 284 283 282 283 283 282 283 283 282 280 278 277 275 274 273 272 272 270 268 265 263 260 258 257 257 256 256 256 255 255 255 253 252 252 252 253 255 256 257 257 256 255 255 255 257
281 280 280 281 282 284 282 281 281 282 283 284 284 285 285 287 288 288 288 288 289 289 289 289 288 288 290 292 292 293 295 297 296 295 293 292 292 292 291 291 291 289 286 283 282 281 281 280 279 279 278 277 276 274 272 271 271 270 270 270 268 265 261 259 259 259 257 255 254 254 254 254 253 252 251 252 253 254 256 258 260 260 259 258 258 258
279 280 280 281 282 282 280 280 280 281 282 283 283 284 286 287 287 287 287 287 288 289 290 290 290 290 292 293 294 297 300 300 299 298 297 297 297 298 299 300 301 301 299 295 290 285 280 277 275 273 273 273 273 272 271 270 269 269 269 270 270 268 265 262 261 261 258 254 253 253 252 250 249 250 250 251 253 255 256 258 260 261 262 261 261 262
276 278 280 281 282 281 280 280 281 281 281 282 282 284 285 285 285 286 286 287 287 287 288 289 289 290 292 293 295 298 300 299 298 297 298 299 301 302 302 304 305 307 307 305 301 294 285 277 272 268 267 268 269 269 269 269 268 268 268 268 269 268 266 263 261 260 256 252 250 250 248 247 246 248 250 253 255 258 259 259 259 259 260 261 261 262
276 276 276 278 280 282 283 283 282 282 282 283 283 284 284 284 284 284 285 285 286 286 287 288 288 289 290 292 295 297 297 296 295 295 296 297 299 300 301 303 305 307 307 306 303 295 288 279 269 265 263 263 265 266 267 267 267 266 266 266 265 265 263 261 259 256 253 249 247 246 245 245 247 249 252 255 258 260 262 262 261 260 259 259 259 259
278 277 276 275 276 278 281 282 283 283 283 284 284 284 284 284 285 285 285 285 285 286 287 288 289 289 291 294 296 296 294 292 293 294 295 297 298 300 301 302 304 304 305 305 299 290 283 269 258 259 262 262 263 264 265 265 265 264 263 262 261 260 259 257 255 252 250 247 245 244 244 245 248 251 253 256 260 262 263 263 263 263 261 260 259 259
279 278 278 277 277 277 279 281 282 283 284 285 285 285 285 284 284 284 284 285 285 285 286 287 289 290 291 293 295 295 293 292 291 293 296 299 301 302 303 304 303 303 305 302 295 289 278 257 251 254 258 263 266 268 268 266 264 263 261 259 258 256 254 253 252 250 249 248 247 245 245 247 249 252 255 257 261 264 264 264 263 263 263 263 261 260
282 280 279 279 280 280 281 282 282 284 284 285 286 286 286 285 284 284 284 284 284 285 285 287 289 289 289 291 293 294 293 293 294 296 299 301 302 302 303 302 300 302 304 295 285 285 274 260 259 256 250 260 272 274 272 270 267 264 262 260 258 255 252 250 249 248 248 248 249 248 247 249 251 254 257 260 263 266 267 266 264 263 263 263 263 262
283 283 282 282 282 282 283 283 283 284 284 285 286 286 286 285 285 284 284 284 284 284 285 287 289 289 288 288 290 291 293 295 297 299 302 302 301 301 300 300 300 302 301 292 281 277 269 263 266 263 255 261 275 279 272 271 270 267 265 263 260 258 254 251 249 248 248 248 249 249 249 250 253 256 259 262 265 267 268 268 267 266 264 263 263 262
283 284 284 284 284 283 283 283 283 284 286 288 288 287 286 285 284 283 283 283 283 284 286 287 287 287 286 286 287 289 293 295 296 299 301 301 300 299 299 300 302 302 300 295 287 275 264 262 267 270 266 265 276 281 271 266 268 267 266 264 261 259 257 255 253 251 250 249 249 250 251 253 257 261 262 263 265 267 269 270 269 268 266 264 262 262
282 283 283 282 282 281 281 282 283 286 288 289 288 286 285 283 282 281 281 281 281 283 285 284 284 283 282 283 285 288 292 294 293 295 297 297 296 297 298 299 299 298 294 291 288 279 266 259 261 269 272 271 277 282 275 264 263 263 264 265 264 261 260 258 257 256 255 254 254 254 256 258 262 266 265 265 266 268 270 271 270 269 267 265 263 261
283 283 280 279 279 279 281 283 286 289 289 288 287 285 283 282 281 280 280 281 282 283 281 279 279 280 281 283 286 289 292 293 294 294 295 296 296 295 295 295 294 292 289 285 283 279 272 266 266 272 277 278 279 282 277 267 265 266 262 262 263 263 262 261 260 260 260 261 261 261 262 264 267 268 267 266 267 269 271 272 273 271 269 266 264 262
282 280 279 279 280 282 285 288 290 289 289 287 284 283 282 282 282 281 282 283 282 281 279 279 280 280 282 286 289 291 292 293 294 294 294 295 295 293 291 290 289 287 286 284 281 279 276 274 274 276 279 280 280 281 278 268 268 271 265 259 260 261 263 263 262 263 264 265 266 266 266 267 268 269 268 267 268 270 272 273 274 273 271 268 265 263
280 279 280 281 282 284 286 287 287 285 283 282 281 281 281 281 282 283 283 281 280 279 278 280 282 283 286 289 290 291 292 292 292 293 293 291 289 288 288 286 285 284 283 282 281 279 278 277 277 277 277 278 278 279 278 270 268 271 269 265 263 261 263 264 264 265 266 268 269 270 269 269 269 269 269 269 270 271 272 274 275 275 273 271 268 266
278 279 281 282 283 285 285 283 280 279 278 277 277 278 280 282 282 281 281 281 281 281 279 279 280 283 286 287 288 290 290 289 288 289 288 286 284 283 283 282 281 280 280 279 279 278 277 276 277 277 276 276 275 275 274 270 266 267 269 271 270 267 267 267 266 266 266 268 269 270 271 272 271 271 271 271 271 272 273 274 275 275 275 274 272 269
279 281 283 285 285 285 284 282 280 279 279 279 279 280 282 283 282 282 283 283 283 282 282 283 283 285 286 287 287 288 287 286 285 284 283 282 281 280 279 278 277 277 277 277 277 277 277 276 275 275 274 274 273 271 270 268 265 264 267 270 271 270 269 268 268 267 266 265 265 266 268 269 271 271 272 272 272 272 273 274 275 275 274 274 273 271
282 284 285 286 285 285 285 285 285 284 283 283 284 284 283 282 282 283 283 283 283 282 284 286 286 287 289 289 289 287 286 286 285 282 279 278 278 279 278 277 277 276 276 276 277 277 277 276 275 274 273 273 272 272 270 269 268 267 267 268 269 269 269 268 268 267 266 264 263 263 264 265 267 269 271 272 272 273 273 273 273 274 273 273 272 270
283 284 284 284 284 285 286 286 286 286 286 286 285 284 282 281 282 283 282 282 283 283 285 287 286 288 290 289 289 288 287 286 284 280 277 276 277 277 276 276 276 276 275 276 277 276 276 275 275 275 275 275 274 273 271 268 267 267 265 265 267 267 268 269 269 268 267 266 265 265 265 265 266 267 269 270 272 273 273 273 273 273 272 272 271 269
285 284 283 283 284 285 286 287 287 287 286 285 284 284 283 281 281 280 279 280 282 282 284 285 285 288 290 288 287 288 285 283 282 280 279 280 279 276 275 274 275 276 277 277 277 276 275 274 274 275 276 276 276 275 272 268 265 263 262 262 262 262 265 269 270 269 268 268 269 269 269 269 269 269 270 270 271 272 273 273 273 272 271 271 269 268
287 286 285 285 285 286 287 288 287 285 284 285 285 284 282 281 281 279 278 280 280 279 279 280 282 286 287 285 286 285 281 279 279 279 280 281 279 278 278 277 277 277 279 278 277 276 275 275 275 275 273 272 271 270 269 266 262 260 258 257 258 262 267 271 271 270 271 271 271 272 272 273 273 272 272 271 271 272 272 272 273 272 271 270 269 267
288 287 287 288 288 288 288 288 286 284 285 286 284 282 281 281 281 279 280 282 279 275 276 278 279 280 279 279 282 279 277 277 277 277 278 278 277 276 276 276 276 275 276 276 274 274 274 274 274 273 272 269 267 264 263 262 261 260 260 261 264 268 271 273 274 275 275 275 275 274 274 274 273 273 272 271 270 270 270 270 271 271 270 269 268 266
287 286 286 287 287 287 287 287 286 284 284 284 281 280 280 279 279 278 279 281 278 275 277 277 275 275 276 276 277 274 273 274 274 275 275 275 275 273 272 272 273 274 274 273 272 273 273 273 273 272 271 270 268 267 266 265 265 265 265 266 269 271 273 275 276 277 277 277 277 276 275 274 273 272 272 271 270 270 270 270 270 270 269 268 266 264
285 284 284 284 284 285 286 286 285 283 282 281 278 278 279 278 278 277 277 278 276 275 276 274 272 273 274 274 273 272 271 269 269 269 269 269 270 270 270 271 272 273 272 271 272 272 273 272 272 272 272 272 272 272 271 271 270 270 270 271 272 273 274 275 276 276 277 277 276 276 275 274 273 272 271 270 270 270 271 273 273 272 271 268 266 264
282 280 281 281 281 283 285 285 284 282 280 277 275 275 275 276 276 276 275 274 274 273 272 270 269 271 273 273 274 273 269 266 265 265 265 267 268 268 269 271 272 273 272 272 272 272 272 271 271 272 274 275 275 275 275 274 273 273 273 273 274 275 275 276 276 275 275 274 273 273 273 273 273 272 271 270 270 270 271 273 275 275 273 271 269 266
279 278 279 279 279 281 283 284 282 279 276 273 272 272 273 274 274 273 272 271 270 271 268 266 268 272 272 273 275 274 271 269 269 268 269 270 269 269 269 270 271 271 271 272 272 272 272 272 272 273 274 275 275 276 275 275 274 274 274 274 275 275 276 276 275 274 273 272 271 271 272 273 273 272 272 271 271 271 272 274 275 276 275 274 271 269
277 277 278 279 278 280 282 282 280 277 274 273 272 273 274 274 273 272 272 271 271 271 269 269 271 273 273 273 274 272 272 273 273 272 271 271 271 270 270 269 270 270 270 271 271 272 272 273 273 274 274 275 276 276 276 275 274 274 274 274 275 275 276 275 275 274 273 272 272 273 274 275 276 275 274 273 273 273 274 275 276 278 278 276 274 272
274 275 277 277 276 277 279 279 277 275 273 273 274 276 277 277 276 275 274 274 274 273 273 274 275 275 275 275 274 272 272 273 273 272 272 271 271 271 270 270 270 270 271 271 271 271 272 273 274 274 275 275 276 276 276 275 274 274 274 274 275 275 276 275 274 273 273 273 274 275 276 277 278 278 277 276 276 276 276 276 277 277 277 277 276 275
273 274 276 274 273 275 277 277 277 274 272 273 275 277 279 279 279 278 276 275 275 275 276 278 277 276 276 277 275 273 272 272 273 273 273 273 272 272 272 272 272 272 272 272 272 272 272 273 274 274 274 274 275 275 274 273 273 273 273 273 274 274 274 274 274 274 274 274 275 276 277 278 278 278 278 277 277 277 276 276 276 276 275 275 275 275
273 274 275 273 273 275 276 276 276 274 273 273 275 277 280 282 282 279 277 278 278 278 279 280 279 278 279 278 277 275 275 275 276 276 276 276 276 276 276 276 276 275 275 274 274 273 273 273 273 273 273 273 273 273 273 273 272 272 273 273 273 274 274 274 274 274 274 275 276 277 277 278 278 278 278 277 277 276 276 275 275 274 273 273 273 273
274 275 275 274 274 274 275 276 274 273 274 274 275 278 282 283 282 281 280 281 279 279 280 281 280 280 281 279 278 278 279 279 279 280 280 280 280 279 279 278 278 277 277 276 276 275 274 273 273 272 272 272 271 272 272 272 273 273 273 274 274 275 275 275 275 275 276 276 277 277 277 278 278 278 277 277 277 276 275 275 274 273 272 271 271 271
274 275 275 275 275 275 276 275 273 273 273 273 276 282 284 283 281 281 280 279 279 280 282 282 282 283 283 281 280 281 281 282 282 283 283 283 282 281 280 280 279 279 278 278 277 276 276 275 274 273 272 271 271 271 271 272 272 273 274 275 275 276 276 277 277 277 277 277 277 277 277 277 277 277 277 277 277 276 276 275 274 273 273 272 271 270
275 275 275 275 275 276 277 275 275 274 273 275 282 286 284 282 281 280 279 280 281 283 283 284 284 284 283 282 283 284 285 285 285 285 285 285 284 283 282 282 282 281 280 279 278 278 277 277 276 276 275 275 274 274 274 274 274 275 275 275 276 276 277 277 277 277 277 277 277 277 277 277 277 277 277 277 277 277 276 276 275 275 275 274 274 273
275 275 275 275 275 277 278 277 276 275 276 282 286 285 283 282 282 282 282 284 285 285 285 285 285 285 284 285 286 287 287 287 287 287 287 286 285 284 284 284 283 282 282 281 281 281 280 280 280 280 280 279 279 278 278 278 277 277 277 277 277 277 277 278 277 278 278 278 278 278 278 278 278 278 278 278 278 278 278 277 277 277 276 276 275 274
275 276 276 276 277 278 279 278 277 278 282 286 286 283 283 284 284 284 286 286 286 286 286 286 286 285 286 287 287 287 287 287 287 287 287 286 284 284 284 284 284 284 284 284 283 284 283 283 283 283 283 282 282 282 281 281 280 280 280 280 279 279 279 279 278 278 278 278 278 278 278 278 278 278 278 278 278 278 278 278 278 278 278 277 276 275
277 277 278 278 279 280 281 280 280 282 285 286 286 286 287 286 286 287 287 286 286 286 286 286 286 286 286 288 288 288 288 287 287 286 286 284 284 285 286 286 286 286 285 285 285 285 285 285 284 284 283 283 283 283 283 283 283 282 282 282 282 282 282 281 281 280 280 280 279 279 279 279 279 278 278 278 278 278 278 277 277 277 277 277 276 276
277 278 279 280 280 281 282 282 283 285 286 286 288 289 288 288 289 290 288 287 286 286 286 286 287 287 288 288 288 288 287 287 287 287 286 286 286 287 287 287 287 286 285 285 285 285 285 285 284 284 284 284 284 284 285 285 285 285 285 285 285 285 285 284 284 284 283 283 283 282 282 281 281 280 280 279 279 278 278 278 277 277 276 276 276 275
278 278 279 280 280 282 283 284 285 286 287 289 290 290 290 290 290 289 288 287 287 287 287 287 287 287 287 287 286 286 286 286 287 288 287 287 287 288 287 287 287 287 287 287 287 287 286 286 286 286 286 286 286 286 286 286 287 287 287 288 288 288 287 287 287 287 286 286 285 285 284 284 283 282 282 281 280 280 279 279 278 278 277 277 276 275
278 279 280 280 280 282 283 284 285 286 288 291 291 291 291 290 290 288 287 287 289 289 288 286 286 286 285 285 285 285 285 286 287 287 287 287 288 288 289 289 289 289 290 291 291 290 289 289 288 288 287 287 287 287 287 287 288 288 288 288 288 288 288 288 287 287 287 287 286 286 285 285 284 284 283 283 282 281 281 280 279 279 278 278 277 276
280 280 280 280 281 284 284 285 285 287 289 292 291 290 289 289 288 287 287 288 290 288 286 286 285 284 285 284 284 284 285 287 288 288 288 287 287 288 289 289 290 291 292 292 291 291 291 290 290 289 289 289 289 288 288 288 288 288 288 288 288 288 288 288 288 288 288 288 287 287 287 287 286 286 285 285 284 283 282 282 281 280 279 279 278 277
280 280 280 281 284 285 286 286 287 288 289 290 289 288 288 287 286 286 287 289 288 286 285 285 284 284 285 284 284 285 286 288 289 289 288 288 288 288 289 290 291 292 292 291 291 291 291 290 290 290 289 289 289 289 289 289 288 288 288 289 289 289 289 289 289 289 289 289 289 288 288 288 287 287 286 286 285 284 284 283 283 282 281 280 279 278
281 280 281 284 286 287 288 288 287 288 289 288 287 286 287 287 287 287 287 286 285 284 284 284 284 284 284 283 284 286 287 288 289 289 289 289 290 290 290 291 292 292 292 292 291 291 290 290 290 290 290 290 290 290 289 289 289 289 290 290 290 290 290 290 290 290 290 289 289 289 288 288 288 288 287 287 286 286 285 285 284 284 283 282 280 279
281 281 283 286 288 288 287 287 286 287 288 288 287 287 287 287 288 287 286 285 285 285 286 285 285 285 284 285 286 287 287 288 288 288 289 290 291 291 291 292 292 292 292 292 291 291 291 291 291 291 291 290 290 290 290 290 291 291 291 291 290 290 290 290 290 290 290 290 290 290 290 290 290 290 290 290 289 289 288 287 286 285 284 284 283 281
281 283 285 287 287 286 285 286 286 286 287 288 287 287 288 287 287 286 285 285 286 287 287 287 286 286 287 288 288 288 288 288 288 289 290 290 291 292 293 293 293 293 293 293 293 292 292 292 292 292 292 292 291 291 291 292 292 292 292 291 291 291 291 291 291 292 292 292 292 292 292 292 292 293 293 293 292 291 290 289 288 287 286 286 285 284
282 285 286 286 286 285 283 284 284 283 286 288 288 288 288 286 285 286 286 286 286 287 287 287 288 289 289 288 288 288 288 289 289 290 291 292 293 293 294 294 295 295 295 295 294 294 294 294 294 293 293 293 293 293 293 293 293 293 293 293 293 293 293 293 293 294 294 294 294 294 294 295 296 296 295 294 293 293 292 292 291 290 290 289 289 288
284 286 286 285 285 283 281 282 281 281 284 286 285 286 285 283 283 283 284 285 285 286 287 287 288 289 288 287 288 289 289 290 291 292 292 294 294 294 295 296 296 296 296 296 295 295 295 295 295 295 295 294 294 294 294 294 294 294 294 294 295 295 295 296 296 296 296 297 297 297 298 298 298 297 296 295 295 295 294 294 294 293 293 293 292 291
285 286 285 285 285 283 282 283 282 282 283 283 280 280 281 281 282 283 282 283 284 285 287 287 287 287 287 287 288 289 290 291 292 293 294 295 295 295 296 296 297 297 296 296 296 296 296 296 296 296 295 295 295 294 294 294 295 295 295 296 296 297 297 298 299 299 299 300 300 300 300 299 298 297 296 296 296 296 297 297 298 298 297 296 295 293
285 285 285 286 286 284 283 283 283 282 282 279 277 277 278 280 282 283 284 285 286 286 287 287 287 287 287 287 288 289 291 292 293 294 295 295 296 296 296 297 296 296 296 296 296 296 297 297 296 296 295 295 294 294 294 295 295 296 297 298 299 300 300 301 301 302 302 302 302 302 301 300 299 299 299 299 300 301 302 303 303 303 302 301 299 298
286 286 287 287 284 281 282 284 286 284 281 277 276 277 278 279 280 281 283 285 285 286 286 286 286 287 287 288 289 290 291 292 293 294 295 295 296 296 296 296 296 296 296 296 297 297 297 296 296 295 295 294 294 294 295 296 297 299 300 301 302 303 303 303 303 304 304 304 305 304 303 302 302 303 303 304 305 306 307 307 306 306 306 304 303 301
288 287 288 285 281 281 284 287 288 287 283 281 278 278 279 281 281 281 283 284 285 286 286 286 287 287 288 289 290 291 292 292 293 294 295 295 296 296 296 296 296 296 296 297 297 297 297 296 295 295 294 294 294 295 297 299 300 301 303 304 304 304 304 305 306 307 307 307 307 306 304 304 305 306 307 308 308 309 309 309 309 308 307 306 304 302
287 286 285 282 282 285 286 287 287 286 284 283 282 281 281 281 282 284 285 285 285 286 286 287 288 288 289 290 291 291 292 293 294 294 295 295 295 295 295 295 295 296 296 297 297 296 296 295 294 294 294 294 296 298 300 301 302 303 305 305 305 305 307 308 309 309 309 309 308 306 305 306 307 309 310 311 311 311 311 311 310 310 309 308 308 307
Height
5805 5803 5799 5801 5803 5804 5803 5802 5800 5799 5798 5797 5797 5796 5795 5794 5793 5795 5796 5796 5794 5791 5791 5792 5790 5790 5789 5790 5791 5791 5791 5790 5790 5790 5790 5790 5790 5790 5788 5787 5788 5788 5788 5788 5787 5786 5785 5784 5783 5782 5781 5780 5780 5780 5779 5779 5778 5778 5778 5779 5779 5778 5778 5778 5777 5777 5777 5777 5776 5776 5776 5775 5775 5775 5776 5776 5776 5776 5776 5776 5777 5778 5779 5779 5778 5776
5800 5798 5796 5796 5797 5799 5800 5797 5794 5792 5793 5792 5792 5791 5790 5789 5789 5791 5790 5788 5787 5786 5786 5787 5785 5783 5783 5786 5786 5786 5787 5786 5786 5787 5785 5784 5783 5783 5782 5782 5783 5784 5783 5783 5782 5781 5781 5780 5779 5778 5777 5776 5775 5775 5774 5774 5773 5773 5773 5774 5774 5774 5774 5773 5773 5773 5772 5772 5772 5772 5772 5771 5771 5771 5771 5771 5771 5771 5771 5771 5772 5773 5774 5774 5772 5771
5793 5793 5793 5792 5792 5794 5794 5792 5790 5788 5788 5788 5786 5785 5784 5785 5785 5785 5784 5782 5780 5779 5779 5780 5779 5777 5778 5779 5779 5779 5781 5781 5779 5780 5779 5778 5777 5775 5775 5775 5776 5778 5778 5777 5777 5776 5776 5775 5774 5773 5772 5771 5771 5770 5769 5769 5769 5768 5768 5769 5769 5769 5770 5769 5769 5769 5768 5767 5767 5767 5767 5767 5767 5766 5766 5766 5766 5766 5766 5767 5767 5768 5769 5769 5768 5767
5788 5788 5788 5786 5787 5789 5787 5787 5787 5785 5784 5783 5782 5781 5780 5781 5779 5778 5777 5777 5776 5774 5772 5771 5771 5771 5773 5774 5773 5772 5774 5772 5770 5770 5770 5770 5770 5768 5767 5767 5767 5768 5769 5769 5770 5770 5770 5770 5769 5768 5767 5767 5766 5765 5765 5765 5764 5764 5764 5764 5764 5765 5765 5765 5765 5765 5764 5764 5763 5762 5762 5762 5762 5762 5762 5762 5762 5762 5762 5762 5762 5763 5763 5763 5763 5763
5784 5784 5783 5781 5780 5780 5781 5782 5782 5781 5780 5780 5779 5778 5777 5777 5775 5773 5772 5771 5771 5770 5768 5766 5764 5766 5768 5769 5768 5769 5768 5765 5763 5764 5763 5762 5763 5761 5761 5761 5760 5760 5760 5761 5761 5762 5763 5763 5763 5762 5762 5761 5761 5760 5760 5760 5759 5759 5759 5759 5759 5759 5760 5760 5760 5760 5760 5760 5759 5758 5758 5758 5758 5757 5757 5757 5757 5757 5757 5757 5757 5757 5757 5757 5758 5757
5780 5780 5780 5778 5775 5774 5774 5775 5776 5775 5775 5775 5775 5774 5773 5772 5771 5770 5768 5766 5765 5765 5764 5762 5759 5760 5764 5765 5765 5766 5764 5760 5758 5760 5760 5758 5757 5756 5757 5757 5756 5756 5755 5754 5755 5755 5756 5757 5757 5757 5757 5756 5756 5755 5755 5754 5754 5754 5754 5754 5753 5754 5754 5754 5754 5755 5755 5755 5754 5754 5753 5753 5753 5753 5753 5753 5753 5753 5752 5752 5752 5751 5751 5751 5751 5751
5774 5775 5775 5774 5772 5771 5770 5770 5769 5769 5769 5769 5770 5770 5769 5767 5766 5765 5764 5762 5761 5760 5759 5758 5755 5754 5757 5760 5760 5760 5758 5755 5754 5755 5754 5754 5753 5752 5752 5753 5752 5751 5751 5750 5750 5750 5751 5751 5752 5752 5752 5751 5751 5750 5750 5749 5748 5748 5748 5748 5748 5748 5749 5749 5749 5749 5749 5749 5749 5748 5748 5748 5748 5748 5748 5748 5748 5748 5748 5747 5747 5746 5746 5745 5745 5745
5769 5769 5769 5768 5768 5767 5767 5766 5765 5764 5764 5764 5764 5764 5763 5763 5762 5760 5759 5758 5757 5756 5755 5755 5753 5751 5752 5754 5754 5753 5750 5748 5750 5751 5750 5749 5748 5748 5747 5747 5747 5746 5746 5746 5745 5746 5746 5746 5746 5747 5746 5746 5746 5745 5745 5744 5743 5743 5742 5742 5742 5742 5743 5743 5743 5743 5743 5743 5743 5743 5743 5743 5743 5743 5743 5743 5743 5743 5743 5742 5742 5741 5741 5740 5739 5739
5764 5764 5763 5763 5763 5763 5763 5762 5761 5760 5759 5759 5759 5758 5758 5757 5756 5755 5754 5753 5752 5750 5751 5751 5750 5749 5749 5750 5748 5745 5742 5742 5743 5746 5747 5745 5743 5743 5742 5740 5741 5741 5742 5742 5741 5741 5741 5741 5741 5741 5741 5741 5742 5741 5740 5739 5738 5738 5738 5737 5737 5737 5737 5737 5737 5737 5737 5737 5738 5737 5737 5737 5737 5737 5737 5737 5737 5737 5737 5736 5736 5736 5736 5735 5734 5733
5758 5758 5758 5758 5759 5758 5758 5757 5756 5756 5754 5754 5754 5753 5753 5752 5751 5750 5748 5748 5746 5745 5747 5747 5745 5744 5744 5745 5744 5741 5737 5737 5738 5740 5741 5740 5738 5738 5737 5735 5735 5736 5737 5737 5737 5737 5736 5736 5735 5736 5735 5734 5735 5736 5735 5734 5733 5733 5733 5732 5732 5732 5732 5731 5731 5730 5730 5731 5731 5731 5731 5731 5731 5731 5730 5730 5730 5730 5730 5730 5729 5729 5729 5729 5728 5727
5752 5753 5752 5753 5753 5752 5753 5752 5751 5751 5750 5750 5750 5749 5748 5747 5746 5744 5743 5742 5740 5741 5742 5742 5739 5738 5738 5739 5739 5738 5735 5734 5735 5737 5736 5734 5733 5731 5730 5730 5730 5730 5731 5732 5732 5732 5731 5730 5729 5729 5729 5728 5728 5730 5730 5730 5729 5728 5727 5727 5726 5726 5726 5726 5725 5725 5725 5725 5725 5725 5724 5724 5724 5724 5724 5723 5723 5723 5723 5723 5723 5722 5722 5722 5722 5721
5747 5748 5747 5747 5747 5746 5746 5746 5746 5745 5744 5744 5744 5743 5742 5741 5739 5737 5737 5736 5735 5737 5738 5736 5733 5731 5732 5734 5735 5734 5733 5729 5729 5733 5732 5729 5728 5728 5726 5726 5726 5726 5726 5726 5726 5727 5726 5724 5723 5723 5723 5723 5722 5723 5724 5724 5724 5723 5722 5721 5720 5720 5720 5720 5719 5719 5719 5719 5718 5718 5718 5717 5717 5717 5717 5716 5716 5716 5715 5715 5715 5715 5715 5715 5715 5714
5742 5742 5741 5741 5742 5741 5740 5740 5740 5739 5739 5738 5738 5736 5735 5734 5732 5730 5730 5729 5730 5731 5731 5729 5728 5726 5727 5730 5730 5730 5730 5725 5722 5726 5727 5724 5723 5724 5723 5722 5721 5721 5720 5721 5720 5721 5721 5719 5717 5716 5715 5716 5716 5715 5716 5717 5717 5718 5717 5716 5715 5714 5713 5713 5712 5712 5711 5711 5711 5710 5710 5709 5709 5709 5709 5709 5708 5708 5708 5707 5707 5707 5707 5707 5706 5706
5736 5736 5735 5736 5737 5737 5735 5735 5733 5733 5733 5731 5731 5730 5728 5728 5725 5723 5724 5724 5724 5724 5722 5723 5723 5722 5724 5726 5724 5724 5725 5722 5717 5717 5720 5719 5717 5717 5717 5716 5715 5714 5713 5713 5713 5713 5713 5712 5710 5709 5708 5707 5707 5707 5708 5709 5709 5710 5710 5710 5709 5708 5707 5706 5705 5705 5703 5703 5702 5701 5701 5701 5700 5700 5700 5700 5699 5699 5699 5699 5698 5698 5699 5698 5698 5698
5729 5731 5731 5731 5732 5732 5732 5730 5727 5727 5726 5725 5726 5724 5723 5723 5720 5717 5717 5717 5716 5715 5717 5720 5718 5717 5720 5722 5719 5718 5719 5718 5713 5711 5713 5714 5712 5709 5708 5708 5707 5706 5704 5703 5704 5703 5702 5702 5701 5700 5700 5699 5699 5698 5699 5699 5699 5699 5701 5702 5702 5701 5700 5699 5698 5698 5696 5695 5694 5692 5692 5692 5692 5691 5691 5690 5690 5690 5689 5689 5689 5688 5689 5689 5689 5689
5723 5725 5726 5725 5724 5726 5726 5724 5722 5722 5720 5719 5720 5719 5718 5719 5716 5712 5710 5711 5711 5707 5710 5716 5715 5714 5717 5718 5716 5713 5713 5713 5709 5707 5707 5704 5704 5703 5701 5700 5699 5698 5696 5694 5693 5693 5692 5692 5691 5690 5689 5689 5690 5689 5690 5689 5688 5687 5688 5690 5692 5693 5692 5691 5691 5690 5689 5687 5685 5684 5682 5682 5682 5681 5681 5680 5680 5679 5679 5679 5679 5678 5679 5679 5679 5679
5716 5718 5720 5719 5716 5717 5719 5717 5716 5717 5715 5713 5715 5715 5713 5712 5710 5706 5702 5705 5705 5699 5703 5711 5710 5710 5711 5711 5712 5708 5705 5706 5704 5702 5700 5696 5696 5695 5693 5692 5691 5689 5688 5686 5684 5683 5682 5682 5681 5681 5679 5679 5679 5679 5679 5679 5678 5677 5675 5676 5678 5680 5681 5680 5680 5680 5679 5678 5677 5676 5674 5672 5671 5670 5670 5670 5669 5669 5669 5668 5668 5668 5668 5668 5668 5668
5708 5711 5713 5713 5710 5709 5712 5711 5709 5710 5709 5706 5707 5709 5707 5704 5703 5701 5695 5696 5697 5691 5693 5702 5703 5704 5705 5703 5703 5699 5695 5697 5696 5693 5691 5689 5688 5686 5684 5683 5682 5682 5680 5678 5676 5674 5673 5672 5671 5671 5669 5669 5668 5668 5669 5669 5668 5667 5666 5665 5666 5667 5667 5668 5668 5668 5668 5668 5667 5666 5665 5664 5663 5661 5659 5658 5658 5658 5658 5657 5657 5656 5656 5656 5657 5657
5700 5703 5707 5708 5704 5702 5706 5706 5703 5701 5702 5700 5698 5699 5699 5696 5695 5696 5690 5687 5688 5683 5683 5689 5692 5697 5699 5695 5693 5690 5686 5686 5685 5683 5681 5681 5680 5679 5677 5675 5674 5673 5672 5670 5668 5666 5665 5663 5661 5660 5659 5658 5658 5658 5658 5659 5658 5658 5657 5656 5655 5655 5655 5655 5656 5656 5655 5655 5655 5655 5655 5654 5653 5652 5650 5648 5647 5646 5646 5645 5645 5645 5645 5645 5645 5645
5694 5693 5697 5703 5701 5697 5698 5700 5697 5694 5693 5693 5691 5690 5691 5689 5688 5688 5685 5682 5680 5675 5674 5676 5678 5686 5691 5687 5685 5683 5679 5677 5676 5674 5672 5672 5671 5670 5669 5668 5667 5666 5664 5663 5660 5658 5657 5655 5654 5653 5651 5650 5649 5648 5648 5648 5649 5649 5647 5646 5645 5644 5644 5644 5644 5644 5644 5643 5643 5642 5642 5642 5641 5640 5639 5638 5637 5636 5635 5634 5634 5633 5633 5633 5633 5633
5686 5683 5685 5693 5695 5691 5691 5693 5690 5686 5684 5684 5684 5683 5683 5681 5680 5678 5676 5678 5676 5669 5667 5667 5666 5674 5682 5679 5676 5675 5672 5671 5669 5667 5664 5663 5662 5661 5660 5660 5660 5659 5657 5655 5654 5651 5649 5648 5647 5646 5644 5643 5642 5640 5639 5639 5639 5639 5638 5637 5635 5634 5633 5633 5632 5632 5632 5632 5631 5630 5629 5628 5628 5627 5627 5626 5626 5625 5625 5624 5623 5623 5623 5622 5622 5622
5677 5673 5673 5679 5684 5685 5685 5684 5680 5677 5676 5676 5674 5674 5675 5674 5672 5669 5666 5670 5671 5663 5661 5660 5656 5662 5672 5672 5669 5667 5665 5664 5663 5659 5657 5656 5655 5654 5652 5651 5651 5651 5649 5647 5645 5643 5642 5640 5639 5638 5636 5635 5634 5632 5631 5630 5629 5628 5627 5626 5624 5623 5622 5621 5620 5619 5619 5619 5619 5619 5618 5617 5616 5615 5614 5614 5614 5614 5614 5613 5613 5613 5612 5612 5611 5611
5670 5666 5665 5667 5672 5677 5679 5678 5673 5668 5669 5669 5665 5665 5668 5667 5666 5663 5658 5660 5661 5656 5655 5654 5647 5650 5662 5665 5662 5660 5659 5657 5654 5652 5651 5648 5647 5646 5645 5643 5642 5641 5639 5637 5635 5633 5632 5631 5629 5628 5627 5625 5624 5623 5622 5620 5619 5617 5616 5614 5613 5612 5610 5609 5609 5608 5607 5606 5606 5605 5605 5605 5604 5603 5602 5601 5601 5601 5601 5601 5602 5602 5601 5601 5601 5600
5663 5660 5657 5657 5661 5666 5671 5672 5667 5661 5660 5661 5659 5658 5660 5659 5659 5657 5653 5652 5650 5647 5649 5646 5638 5642 5652 5655 5653 5652 5650 5649 5646 5644 5644 5642 5640 5638 5637 5635 5633 5631 5630 5628 5626 5624 5622 5620 5619 5617 5616 5615 5613 5612 5611 5610 5608 5606 5605 5603 5602 5600 5599 5598 5597 5596 5595 5594 5593 5593 5592 5591 5591 5591 5590 5589 5588 5588 5587 5588 5588 5589 5589 5589 5589 5589
5656 5654 5651 5649 5650 5654 5661 5665 5661 5655 5653 5653 5652 5652 5653 5653 5654 5650 5648 5646 5639 5637 5641 5637 5630 5636 5643 5643 5644 5644 5640 5638 5637 5635 5635 5634 5633 5631 5628 5626 5624 5622 5621 5619 5617 5615 5613 5611 5609 5607 5605 5604 5602 5601 5599 5598 5596 5595 5593 5591 5590 5588 5587 5586 5585 5584 5583 5582 5581 5580 5579 5578 5578 5577 5577 5576 5575 5575 5574 5574 5574 5575 5575 5575 5575 5576
5648 5647 5646 5643 5641 5643 5649 5655 5654 5649 5645 5644 5646 5646 5646 5648 5648 5644 5641 5638 5632 5629 5631 5628 5625 5630 5635 5635 5637 5635 5628 5626 5626 5626 5626 5625 5623 5622 5620 5617 5615 5613 5612 5610 5608 5606 5604 5602 5600 5598 5596 5593 5591 5590 5588 5586 5584 5582 5580 5579 5577 5576 5574 5572 5571 5570 5570 5569 5568 5567 5566 5566 5565 5565 5564 5563 5562 5561 5561 5560 5560 5560 5561 5561 5562 5562
5640 5639 5640 5638 5634 5635 5638 5642 5645 5640 5635 5634 5637 5640 5641 5642 5640 5636 5631 5628 5625 5620 5618 5621 5622 5620 5623 5629 5629 5624 5619 5615 5615 5616 5616 5615 5614 5612 5611 5608 5606 5605 5603 5602 5600 5597 5595 5593 5590 5588 5585 5582 5580 5578 5576 5574 5572 5570 5568 5566 5564 5563 5561 5559 5557 5556 5555 5554 5554 5553 5552 5551 5551 5551 5550 5550 5549 5548 5547 5546 5545 5545 5545 5545 5546 5547
5632 5631 5635 5632 5627 5628 5630 5630 5633 5631 5626 5625 5627 5631 5634 5634 5632 5628 5622 5618 5617 5609 5605 5614 5618 5609 5610 5618 5617 5613 5610 5606 5605 5605 5605 5605 5604 5602 5600 5598 5597 5596 5595 5593 5591 5588 5585 5583 5580 5577 5574 5571 5568 5566 5564 5561 5559 5557 5555 5553 5551 5550 5548 5546 5544 5542 5540 5539 5538 5538 5537 5536 5536 5536 5536 5535 5534 5533 5533 5532 5531 5530 5530 5529 5530 5530
5623 5623 5628 5624 5619 5622 5623 5621 5622 5620 5616 5617 5619 5621 5625 5626 5625 5620 5614 5612 5610 5600 5596 5604 5606 5599 5600 5605 5603 5599 5599 5597 5596 5596 5595 5594 5593 5591 5589 5588 5587 5586 5585 5583 5580 5577 5575 5572 5569 5566 5563 5559 5556 5554 5551 5549 5546 5544 5542 5540 5538 5537 5535 5533 5531 5528 5526 5524 5523 5522 5521 5521 5520 5520 5520 5519 5519 5518 5517 5517 5516 5516 5516 5515 5514 5514
5615 5616 5618 5614 5611 5615 5617 5614 5611 5607 5605 5608 5611 5613 5615 5616 5615 5611 5607 5606 5602 5593 5589 5592 5589 5587 5592 5592 5588 5586 5587 5587 5586 5584 5584 5583 5582 5580 5579 5577 5576 5574 5572 5570 5567 5565 5563 5560 5558 5554 5551 5547 5543 5540 5538 5535 5533 5531 5530 5528 5526 5523 5521 5519 5518 5515 5513 5511 5509 5507 5506 5505 5504 5504 5504 5503 5503 5502 5501 5502 5502 5502 5502 5501 5500 5499
5608 5608 5608 5605 5602 5606 5611 5608 5601 5596 5596 5598 5602 5606 5608 5607 5605 5602 5599 5598 5593 5585 5583 5581 5575 5575 5580 5579 5574 5574 5576 5576 5574 5572 5572 5571 5570 5568 5566 5564 5563 5561 5558 5555 5553 5550 5548 5546 5544 5542 5538 5534 5530 5526 5523 5521 5519 5518 5517 5514 5512 5509 5508 5506 5504 5502 5500 5498 5495 5493 5491 5490 5488 5488 5487 5487 5486 5485 5485 5485 5485 5486 5486 5486 5485 5485
5601 5599 5599 5596 5590 5595 5605 5601 5590 5588 5588 5587 5593 5601 5602 5598 5594 5592 5589 5587 5583 5579 5576 5572 5566 5565 5565 5562 5561 5564 5566 5565 5563 5562 5560 5558 5555 5552 5550 5550 5550 5547 5544 5541 5537 5535 5532 5530 5528 5526 5523 5520 5516 5512 5510 5507 5505 5505 5503 5501 5498 5497 5495 5493 5491 5489 5487 5485 5483 5481 5478 5476 5474 5473 5472 5470 5469 5469 5469 5468 5468 5469 5468 5468 5469 5468
5594 5590 5590 5588 5581 5584 5596 5591 5581 5578 5576 5579 5590 5595 5592 5588 5584 5580 5578 5578 5577 5574 5567 5562 5558 5555 5550 5547 5548 5553 5554 5553 5552 5550 5547 5543 5538 5535 5534 5536 5535 5531 5528 5526 5523 5520 5518 5515 5512 5509 5507 5504 5501 5498 5496 5493 5492 5491 5489 5487 5485 5484 5482 5481 5479 5476 5474 5472 5470 5468 5465 5463 5460 5459 5457 5455 5453 5452 5451 5451 5451 5451 5451 5450 5451 5450
5586 5582 5581 5580 5573 5575 5584 5582 5571 5565 5566 5575 5585 5585 5579 5577 5573 5568 5568 5569 5569 5565 5558 5552 5547 5541 5535 5535 5538 5540 5539 5539 5538 5537 5534 5528 5522 5519 5520 5521 5519 5516 5514 5511 5509 5507 5505 5502 5500 5496 5493 5490 5486 5484 5483 5480 5478 5476 5475 5473 5472 5471 5469 5467 5466 5464 5461 5459 5457 5455 5452 5449 5446 5445 5443 5442 5439 5436 5435 5435 5434 5434 5433 5432 5432 5432
5578 5576 5572 5570 5566 5565 5572 5571 5559 5554 5561 5569 5571 5571 5569 5566 5562 5559 5559 5560 5559 5554 5548 5542 5536 5530 5524 5524 5527 5527 5526 5526 5526 5525 5521 5514 5508 5506 5507 5508 5505 5503 5502 5500 5498 5496 5494 5491 5489 5485 5482 5478 5474 5472 5470 5468 5466 5464 5462 5460 5458 5457 5455 5453 5452 5450 5448 5446 5444 5442 5439 5436 5433 5431 5430 5428 5425 5423 5422 5420 5418 5417 5416 5413 5412 5413
5570 5567 5563 5561 5559 5556 5558 5558 5549 5547 5555 5559 5557 5558 5558 5554 5552 5550 5547 5548 5548 5544 5539 5531 5523 5520 5518 5514 5513 5513 5513 5513 5514 5514 5510 5503 5497 5496 5497 5497 5495 5492 5491 5489 5488 5487 5484 5481 5479 5475 5472 5469 5465 5462 5460 5457 5455 5453 5450 5448 5446 5444 5442 5440 5438 5437 5434 5432 5431 5428 5425 5422 5420 5418 5416 5414 5412 5410 5408 5406 5404 5402 5400 5397 5395 5395
5562 5559 5556 5553 5551 5549 5546 5545 5542 5539 5543 5547 5548 5547 5544 5541 5542 5539 5532 5531 5535 5534 5530 5520 5511 5510 5510 5506 5503 5502 5500 5499 5502 5503 5499 5493 5490 5489 5488 5487 5485 5483 5481 5480 5479 5479 5476 5472 5469 5466 5463 5460 5456 5453 5451 5448 5445 5443 5440 5438 5435 5432 5430 5428 5426 5424 5422 5420 5418 5415 5412 5409 5406 5404 5403 5400 5398 5395 5393 5391 5389 5388 5385 5382 5380 5380
5554 5551 5550 5545 5542 5543 5539 5534 5533 5530 5530 5536 5539 5536 5531 5530 5531 5526 5516 5515 5522 5523 5518 5511 5505 5501 5499 5496 5494 5492 5490 5489 5492 5494 5491 5485 5483 5481 5478 5478 5477 5474 5472 5472 5472 5470 5466 5463 5461 5457 5454 5451 5447 5445 5443 5440 5437 5434 5431 5429 5426 5423 5420 5418 5415 5412 5410 5408 5406 5403 5400 5397 5393 5391 5388 5386 5384 5381 5379 5377 5375 5373 5370 5366 5364 5364
5546 5543 5542 5536 5533 5536 5533 5526 5524 5521 5520 5526 5527 5523 5521 5519 5517 5512 5502 5502 5511 5512 5504 5501 5497 5492 5489 5487 5484 5483 5481 5481 5483 5485 5483 5479 5476 5473 5470 5469 5468 5466 5464 5464 5462 5460 5457 5455 5452 5448 5445 5442 5439 5436 5434 5431 5429 5425 5423 5420 5416 5414 5411 5408 5405 5402 5399 5397 5394 5391 5388 5385 5381 5378 5375 5372 5370 5367 5364 5362 5361 5358 5354 5351 5348 5348
5540 5535 5531 5527 5526 5528 5524 5517 5514 5513 5515 5518 5514 5509 5509 5508 5504 5499 5491 5491 5499 5498 5492 5490 5488 5483 5481 5478 5476 5475 5474 5473 5474 5476 5474 5471 5470 5467 5462 5460 5460 5459 5458 5456 5454 5451 5449 5446 5443 5439 5436 5433 5430 5428 5425 5423 5420 5416 5413 5410 5407 5404 5401 5398 5395 5392 5389 5386 5382 5379 5376 5372 5369 5366 5363 5359 5356 5353 5350 5348 5345 5342 5339 5336 5334 5332
5533 5527 5521 5519 5520 5520 5515 5507 5503 5505 5509 5510 5503 5498 5497 5496 5493 5490 5485 5483 5485 5483 5481 5481 5478 5475 5472 5469 5467 5467 5468 5466 5465 5465 5464 5462 5461 5460 5457 5453 5452 5451 5450 5448 5446 5444 5441 5438 5435 5432 5429 5425 5422 5420 5417 5414 5411 5408 5405 5401 5398 5394 5391 5388 5385 5381 5378 5375 5371 5367 5364 5360 5356 5353 5349 5346 5342 5339 5337 5334 5329 5326 5323 5320 5318 5316
5522 5517 5515 5515 5513 5510 5506 5498 5492 5492 5498 5499 5493 5490 5488 5484 5482 5482 5479 5475 5473 5472 5472 5470 5469 5467 5464 5461 5460 5460 5461 5460 5458 5456 5455 5453 5452 5451 5450 5448 5445 5443 5441 5440 5438 5436 5433 5430 5427 5424 5420 5417 5413 5410 5407 5404 5402 5399 5395 5392 5388 5384 5381 5378 5374 5371 5367 5363 5360 5356 5351 5348 5343 5339 5335 5332 5328 5324 5324 5321 5315 5310 5307 5303 5300 5298
5511 5507 5508 5511 5508 5501 5495 5489 5482 5480 5485 5486 5481 5479 5479 5476 5473 5473 5470 5465 5463 5463 5462 5460 5460 5459 5456 5454 5454 5454 5454 5453 5451 5449 5447 5445 5443 5442 5441 5440 5438 5436 5434 5432 5429 5427 5424 5421 5418 5415 5412 5408 5404 5401 5398 5395 5392 5390 5386 5382 5378 5375 5371 5368 5364 5360 5356 5352 5348 5343 5339 5335 5331 5326 5322 5318 5314 5310 5308 5306 5301 5297 5293 5288 5284 5282
5500 5500 5501 5503 5501 5491 5484 5481 5475 5470 5473 5475 5469 5469 5470 5467 5465 5464 5461 5458 5456 5455 5454 5451 5451 5451 5449 5446 5445 5445 5445 5445 5443 5442 5441 5438 5436 5434 5432 5431 5429 5427 5425 5423 5419 5417 5415 5412 5409 5406 5402 5399 5395 5391 5389 5386 5383 5380 5376 5372 5368 5365 5361 5358 5353 5349 5345 5340 5336 5331 5327 5323 5318 5314 5309 5305 5300 5296 5293 5290 5287 5284 5280 5275 5271 5269
5493 5495 5494 5492 5492 5482 5474 5474 5470 5463 5465 5466 5459 5458 5460 5458 5457 5456 5452 5450 5449 5448 5446 5444 5443 5444 5443 5439 5437 5437 5437 5437 5436 5435 5433 5431 5429 5427 5424 5422 5420 5418 5416 5413 5410 5407 5405 5402 5400 5397 5394 5390 5386 5382 5380 5376 5373 5370 5366 5362 5358 5354 5351 5347 5343 5338 5334 5329 5325 5320 5315 5312 5307 5302 5298 5293 5288 5284 5281 5278 5274 5271 5268 5264 5261 5258
5486 5489 5484 5479 5480 5473 5464 5465 5465 5460 5462 5462 5454 5450 5450 5449 5450 5450 5445 5443 5443 5441 5440 5439 5437 5437 5436 5432 5431 5430 5429 5429 5428 5427 5426 5424 5421 5419 5416 5414 5411 5409 5406 5403 5400 5398 5396 5393 5391 5388 5385 5381 5377 5374 5371 5367 5363 5359 5356 5352 5349 5345 5340 5336 5332 5328 5323 5318 5314 5309 5304 5301 5297 5293 5288 5283 5279 5274 5271 5268 5264 5261 5258 5254 5251 5247
5479 5481 5475 5468 5467 5460 5452 5456 5459 5456 5457 5458 5451 5446 5443 5440 5441 5441 5438 5437 5437 5435 5434 5433 5431 5430 5428 5426 5425 5424 5422 5421 5421 5419 5418 5416 5413 5411 5408 5406 5403 5400 5397 5394 5392 5389 5387 5385 5382 5379 5376 5373 5369 5366 5362 5358 5354 5350 5347 5344 5340 5335 5331 5327 5322 5318 5313 5308 5303 5299 5294 5291 5287 5284 5280 5276 5272 5267 5264 5260 5256 5253 5249 5245 5240 5237
5470 5469 5465 5460 5456 5449 5442 5445 5451 5450 5449 5449 5445 5440 5437 5435 5433 5432 5431 5430 5430 5429 5428 5427 5424 5422 5421 5420 5419 5418 5416 5414 5413 5411 5410 5408 5405 5403 5400 5398 5395 5392 5389 5386 5384 5381 5379 5376 5373 5370 5367 5364 5361 5358 5354 5351 5346 5342 5339 5335 5331 5327 5323 5318 5313 5308 5304 5299 5294 5290 5286 5282 5279 5276 5273 5269 5265 5261 5257 5253 5249 5245 5241 5235 5231 5228
5460 5457 5456 5451 5444 5439 5436 5438 5440 5439 5439 5440 5439 5434 5431 5429 5427 5426 5425 5424 5423 5422 5421 5420 5417 5415 5414 5413 5412 5411 5409 5407 5406 5404 5402 5400 5397 5395 5392 5389 5387 5384 5381 5378 5375 5373 5371 5368 5365 5362 5359 5356 5353 5350 5347 5343 5339 5335 5331 5328 5323 5319 5314 5310 5305 5301 5295 5291 5286 5282 5279 5275 5272 5269 5266 5263 5259 5255 5251 5246 5241 5238 5234 5228 5223 5219
5449 5446 5446 5440 5430 5430 5432 5433 5431 5428 5427 5430 5431 5428 5425 5422 5420 5419 5419 5418 5416 5415 5413 5412 5410 5409 5407 5406 5405 5403 5402 5400 5398 5396 5394 5392 5389 5387 5384 5381 5378 5376 5373 5370 5368 5365 5362 5359 5356 5354 5351 5348 5345 5343 5340 5336 5332 5328 5324 5320 5315 5311 5307 5302 5299 5294 5289 5284 5280 5276 5272 5269 5266 5263 5260 5257 5254 5250 5246 5240 5234 5229 5225 5220 5215 5210
5439 5436 5435 5428 5421 5423 5427 5427 5424 5419 5417 5420 5422 5421 5419 5416 5413 5412 5412 5410 5409 5408 5406 5404 5403 5401 5400 5399 5398 5396 5394 5393 5391 5389 5386 5384 5381 5379 5376 5373 5370 5368 5365 5362 5360 5357 5354 5351 5348 5346 5343 5341 5338 5336 5333 5329 5325 5321 5318 5313 5309 5305 5300 5296 5293 5288 5283 5278 5274 5270 5267 5263 5261 5258 5255 5251 5248 5244 5241 5237 5230 5223 5216 5211 5207 5202